Tracking 19146 objects as of 24-Apr-2018
HD Live streaming from Space Station
objects crossing your sky now

FENGYUN 1C DEB

Track FENGYUN 1C DEB now!
10-day predictions


NORAD ID: 37708
Int'l Code: 1999-025ELZ
Perigee: 552.4 km
Apogee: 1,046.7 km
Inclination: 98.3 °
Period: 100.7 minutes
Semi major axis: 7170 km
RCS: 0.0068 m2 (small)
Launch date: May 10, 1999
Source: People's Republic of China (PRC)
Launch site: Taiyaun Space Center, China (TSC)

Note: This is SATELLITE DEBRIS
aabbcc
Your satellite tracking list
Your tracking list is empty




NASA's NSSDC Master Catalog

Two Line Element Set (TLE):
1 37708U 99025ELZ 18100.18891849  .00000743  00000-0  16363-3 0  9994
2 37708  98.2762 243.1733 0344633 282.3472  73.9340 14.29794536519163
Source of the keplerian elements: AFSPC